Theta_e
310 310 311 311 311 311 312 312 312 312 313 312 312 312 311 311 310 309 308 308 308 308 309 311 311 311 310 310 309 310 310 310 310 311 312 313 313 314 316 316 314 315 314 314 317 319 315 322 335 344 348 348 347 347 347 348 349 351 359 362 359 362 360 357 359 356 359 363 357 352 351 354 355 350 348 349 349 344 344 344 344 345 345 347 347 348 348 348
309 310 311 311 312 312 312 312 312 313 313 314 313 313 312 311 311 310 308 307 308 308 309 309 311 311 311 310 310 310 310 310 310 312 313 313 313 313 315 316 316 315 314 313 318 319 317 330 345 346 344 344 344 346 346 346 346 352 360 361 362 367 358 352 354 352 355 360 357 353 351 352 354 351 350 353 354 346 343 344 345 346 347 348 348 348 348 348
307 309 310 311 312 312 312 312 312 313 314 314 314 314 313 312 311 311 309 308 307 308 308 308 310 311 311 311 310 310 310 312 314 317 320 318 314 313 314 314 315 315 314 314 316 319 323 333 340 336 336 338 341 346 344 344 350 352 356 363 366 367 357 351 350 350 353 355 356 355 351 351 351 351 351 352 353 345 342 345 346 347 347 348 348 348 348 348
307 307 308 310 311 312 313 313 313 313 314 314 314 314 314 312 311 311 310 309 307 308 308 308 309 310 312 310 311 310 310 317 324 325 326 322 317 314 313 314 314 314 313 315 315 322 330 334 334 331 332 336 339 342 340 343 353 355 360 368 361 358 359 354 350 350 352 353 357 355 350 350 349 350 350 348 352 347 342 346 346 347 348 348 348 348 348 348
308 307 307 309 310 312 313 313 313 313 314 314 315 315 314 313 312 311 311 309 308 307 308 308 309 310 311 310 311 309 311 323 331 328 326 322 320 315 313 314 314 314 313 314 318 328 334 333 331 329 331 335 337 338 340 344 351 357 362 361 354 354 357 354 351 352 353 354 354 353 351 350 347 349 348 347 354 351 344 346 347 346 347 347 347 347 348 348
308 308 307 307 309 311 313 313 313 313 314 314 315 314 314 313 311 311 311 310 308 307 308 308 308 309 310 310 310 309 312 323 327 325 325 323 322 318 314 314 313 313 313 316 324 331 333 332 330 330 332 335 335 337 345 349 352 360 360 354 353 354 353 352 352 351 353 354 352 351 351 350 349 350 348 347 352 349 344 346 346 346 346 346 347 347 348 348
309 308 307 306 308 310 312 313 313 313 314 315 314 313 312 311 311 311 311 310 308 308 308 308 308 309 310 310 310 310 311 317 320 323 326 326 326 322 317 313 313 313 313 319 329 333 333 332 331 331 334 335 334 340 350 352 353 360 359 355 355 353 351 352 351 350 352 352 351 350 349 349 351 352 349 348 348 345 345 346 345 345 345 345 346 347 347 347
309 308 307 306 307 309 312 313 314 314 315 315 314 312 311 311 311 312 310 310 308 308 308 308 309 309 310 310 310 311 311 319 326 328 328 327 327 325 321 314 312 313 313 322 332 334 333 333 334 333 334 333 335 344 352 355 355 357 358 357 356 354 353 352 351 350 350 351 350 350 350 351 350 349 348 347 346 345 345 345 345 345 345 346 346 346 346 346
309 308 307 306 306 308 311 313 314 314 315 314 313 311 311 311 312 311 310 309 309 309 308 308 309 309 310 309 310 315 319 327 330 327 324 325 325 323 321 315 313 313 313 324 333 334 332 333 335 333 333 332 332 341 350 356 357 356 358 358 356 356 353 351 351 350 350 353 353 355 355 352 348 347 347 345 344 344 344 345 345 345 345 346 346 346 346 347
309 308 307 306 306 308 311 313 314 315 315 314 312 311 312 311 311 311 310 309 309 309 308 308 309 309 310 308 311 320 327 330 327 323 322 325 325 321 318 314 313 313 314 325 334 334 333 333 334 333 332 331 329 337 346 354 358 357 356 356 356 356 354 351 350 350 353 354 353 359 360 352 347 348 349 345 343 344 344 344 344 345 345 345 346 345 346 347
308 308 307 306 306 308 311 313 314 315 314 313 312 311 312 311 310 310 310 309 309 309 309 309 309 309 310 308 311 319 324 327 324 322 323 325 327 322 316 314 313 313 315 326 334 335 334 334 334 334 331 328 332 344 351 355 358 356 355 357 356 356 356 352 352 353 356 357 352 355 359 352 349 351 349 344 343 344 343 344 344 344 345 345 345 345 345 346
308 307 306 306 306 308 311 313 314 314 314 313 313 314 314 312 311 310 310 310 309 310 309 310 309 309 309 308 310 315 319 321 321 323 325 326 328 322 314 313 312 313 315 324 333 334 334 334 332 333 331 325 335 349 356 356 356 355 355 359 358 358 359 355 356 356 358 360 354 353 356 354 357 354 346 342 343 344 343 344 344 344 345 345 344 344 345 345
308 307 306 306 306 308 311 313 314 314 313 314 315 316 317 316 313 311 311 311 310 310 310 310 309 309 311 311 312 318 319 319 320 323 325 323 325 321 313 312 312 313 314 321 333 334 333 334 330 331 328 329 342 351 356 355 355 355 355 358 359 360 361 358 356 357 359 357 354 356 354 356 362 352 343 343 343 343 343 343 343 344 344 344 344 344 344 344
308 306 306 306 306 308 311 314 314 313 313 315 316 317 317 317 316 314 313 314 313 313 312 312 314 315 316 315 315 321 320 318 320 321 321 320 323 321 314 312 313 313 315 324 333 333 332 331 328 328 325 334 349 353 354 353 353 355 355 357 360 360 359 359 356 357 361 356 354 359 353 356 363 351 344 343 342 343 343 343 343 344 344 344 344 343 343 343
307 306 306 306 306 308 311 314 314 313 313 315 316 316 316 317 317 316 316 315 315 315 314 314 319 322 320 317 315 320 320 319 320 319 318 319 322 322 317 315 315 314 318 328 332 330 329 327 325 326 325 332 345 352 354 354 354 355 354 355 358 358 358 360 357 356 358 354 354 360 355 356 359 351 345 342 342 343 342 343 343 343 344 344 343 343 342 342
307 307 307 306 306 308 312 314 313 313 314 315 316 316 317 317 317 317 317 316 316 317 315 315 318 320 322 321 317 319 321 321 321 318 318 319 322 322 318 317 319 318 321 328 329 327 326 325 325 325 325 326 335 351 356 354 355 355 355 355 355 358 358 360 358 354 354 353 356 361 358 358 356 349 346 342 342 343 341 342 342 343 343 342 343 342 341 341
307 307 307 306 307 309 312 314 313 313 314 315 317 317 317 318 319 319 318 317 317 318 317 316 316 318 322 322 318 320 321 321 319 318 319 321 323 322 319 318 321 322 324 325 325 325 325 325 325 325 325 324 329 346 352 350 352 352 355 357 355 357 357 357 359 355 352 353 358 361 359 362 359 349 346 343 342 342 341 341 341 342 342 341 342 340 340 341
307 307 307 306 307 309 312 314 313 312 313 316 317 318 319 321 324 324 321 320 318 319 322 320 317 319 322 320 320 322 321 320 320 321 322 323 324 322 320 319 321 323 323 324 324 324 325 324 325 326 325 325 326 337 343 345 350 350 353 356 354 355 356 357 359 357 355 353 356 360 361 365 361 349 345 343 342 343 341 341 341 341 341 341 341 340 341 340
307 307 308 307 307 309 312 314 312 312 313 316 317 318 321 322 324 326 324 322 321 322 326 324 320 322 322 319 322 323 320 321 322 323 324 324 325 324 322 320 321 322 322 324 325 324 326 325 324 325 324 325 325 330 335 339 348 351 352 353 352 355 356 358 358 354 356 356 355 355 357 362 359 352 351 346 343 343 341 341 341 340 341 341 341 340 340 340
307 307 308 307 307 310 313 314 312 312 313 315 317 318 320 319 322 325 323 322 322 322 323 322 321 322 321 320 322 323 322 322 323 324 324 324 325 325 325 323 321 322 322 324 326 325 326 326 326 325 325 325 325 328 330 332 345 351 350 350 351 354 355 358 357 352 354 357 355 354 354 356 355 354 355 349 344 342 341 341 341 341 341 341 341 341 340 340
307 307 308 307 308 310 313 314 312 313 313 315 317 318 318 318 321 324 321 321 322 321 320 320 321 321 322 321 322 324 323 322 324 324 323 322 323 324 324 323 322 323 323 324 325 325 325 325 326 326 326 325 323 325 326 335 349 350 348 350 349 352 354 356 357 352 353 358 357 355 356 356 354 352 352 351 350 347 343 342 341 341 341 341 341 341 341 340
307 308 308 308 309 311 313 313 313 313 314 315 316 317 319 320 322 322 321 321 321 320 321 320 320 321 322 321 321 323 322 322 322 322 322 322 321 322 322 322 323 323 323 323 324 324 323 324 326 324 324 324 324 323 323 335 350 349 347 350 349 351 354 354 355 352 353 360 357 353 356 359 357 354 352 352 354 353 349 345 343 341 341 341 341 341 341 339
307 308 308 308 310 312 313 314 313 314 314 315 317 319 320 321 322 321 321 320 320 322 322 321 321 322 321 320 320 321 321 321 321 321 322 322 321 321 321 321 322 322 322 323 324 322 321 323 323 321 321 322 324 323 321 328 344 350 348 348 349 351 352 352 354 353 353 358 355 353 357 358 357 355 355 354 353 353 351 349 346 342 341 341 341 341 340 339
307 308 308 309 311 313 313 314 313 315 316 317 319 320 320 321 322 323 321 320 321 322 323 322 321 322 323 321 319 320 321 321 320 321 322 322 321 321 320 321 322 322 322 322 322 321 320 322 321 320 321 322 322 323 321 324 338 350 348 347 350 351 353 354 353 353 354 353 353 354 355 354 356 356 357 357 354 352 352 350 349 345 342 342 341 339 339 340
308 309 309 309 311 313 314 315 316 318 319 320 321 320 320 321 322 322 321 322 323 324 323 323 323 323 323 321 319 318 320 321 320 321 322 323 322 320 319 320 320 321 322 321 320 320 320 320 320 320 321 321 321 322 323 322 331 345 349 347 350 352 355 356 352 352 354 352 353 354 352 351 356 358 357 358 356 356 354 351 349 349 346 344 341 339 339 341
308 309 309 310 312 313 315 318 321 320 320 321 320 320 320 321 322 322 323 326 327 326 322 321 320 320 319 319 319 318 319 320 320 320 322 323 323 321 320 320 319 319 320 320 319 320 320 320 320 321 320 321 321 320 324 324 326 337 346 346 349 353 354 353 352 351 352 352 353 354 353 351 354 357 357 358 360 361 358 354 351 349 348 346 341 340 341 342
308 310 310 311 312 313 314 317 319 319 319 320 320 321 320 321 322 321 324 327 325 322 320 317 316 316 317 318 318 319 320 320 322 320 321 324 323 322 323 323 320 318 319 318 317 318 321 320 320 321 320 321 321 320 324 325 326 337 346 347 351 354 353 352 352 352 353 353 353 354 356 353 351 355 357 357 360 362 361 359 355 349 348 347 343 341 342 342
309 310 311 311 312 313 313 314 316 317 319 320 320 320 321 323 323 321 327 329 323 317 318 315 316 318 318 318 318 320 320 322 326 324 321 324 323 322 323 323 322 320 321 318 315 317 320 320 320 321 321 321 322 322 323 327 336 346 348 346 351 354 354 352 352 352 352 351 351 353 355 352 351 356 358 358 358 359 360 360 356 352 349 348 346 344 342 342
309 311 311 312 313 313 313 315 317 318 320 322 320 321 323 323 323 324 331 332 323 317 319 316 318 319 317 317 318 319 318 322 328 326 324 324 323 323 323 323 323 323 323 319 318 319 319 320 320 320 322 321 322 323 324 336 349 348 345 348 350 351 352 351 352 352 350 349 350 351 351 349 351 355 356 357 357 355 357 356 354 352 350 348 347 345 343 342
310 311 312 313 313 313 315 317 319 320 322 322 321 323 323 323 328 332 331 329 322 318 318 317 319 319 318 318 318 319 319 323 327 325 325 325 323 324 323 323 323 322 323 321 320 321 319 321 322 321 323 322 324 326 326 340 351 346 347 351 348 348 350 350 351 351 347 348 350 348 348 348 350 353 354 356 356 353 353 355 354 352 350 349 348 346 343 342
311 312 312 314 312 313 318 320 320 321 322 321 321 323 323 327 336 335 331 325 321 320 317 318 319 318 319 319 319 320 319 323 326 325 325 324 323 323 322 324 323 322 325 324 322 322 320 321 322 323 324 324 327 331 330 338 344 345 348 349 347 350 351 348 349 349 346 349 350 348 350 348 347 352 354 354 355 353 352 354 354 352 350 350 349 347 343 343
311 312 313 314 312 315 320 321 321 321 320 320 322 322 327 335 337 333 331 326 323 322 319 318 318 318 319 319 320 320 320 324 326 324 323 322 323 323 322 325 324 322 325 326 323 322 321 322 323 322 324 326 329 330 331 334 337 345 348 344 345 348 348 348 348 346 345 348 351 351 351 349 348 352 354 353 353 353 351 351 352 351 350 350 350 347 344 343
312 312 313 313 314 317 320 320 320 319 319 320 321 323 330 337 337 333 331 326 323 323 320 320 319 317 319 319 319 320 322 329 331 325 322 320 322 323 322 324 323 321 323 325 320 318 320 322 322 323 325 329 332 331 331 330 331 339 342 340 343 345 344 344 343 344 346 349 352 351 350 351 352 354 354 353 351 351 351 350 351 351 350 349 350 348 344 343
313 314 316 316 317 319 318 319 318 318 319 319 324 331 332 333 337 334 328 324 323 321 320 320 319 318 319 320 321 322 323 328 331 326 322 320 320 321 321 321 320 321 322 322 321 317 316 320 325 326 325 329 333 333 332 331 329 332 336 337 338 339 340 341 342 344 347 349 350 349 349 352 355 357 356 353 350 349 350 351 352 351 349 348 349 349 346 344
313 315 317 318 319 319 318 318 317 318 319 319 329 339 335 331 334 329 324 323 321 319 319 320 320 320 323 325 325 325 323 324 327 325 324 322 320 321 323 321 320 322 320 321 327 323 316 320 328 327 327 329 331 330 330 331 330 330 331 331 329 335 345 346 345 345 345 349 350 348 350 356 359 360 356 352 350 349 350 351 352 352 350 348 350 349 347 345
314 316 318 318 319 319 318 319 318 318 319 323 334 340 335 332 331 325 324 324 320 318 320 321 321 322 325 329 330 327 325 324 325 325 323 324 324 323 322 321 321 321 320 323 329 326 318 322 328 325 328 330 329 328 329 329 331 332 328 325 327 336 349 348 345 345 346 347 346 346 352 357 357 357 357 356 355 352 351 351 351 351 350 349 349 349 348 346
315 316 318 321 322 320 320 322 321 320 321 326 335 339 336 331 327 325 325 324 320 319 321 321 320 322 325 328 330 330 327 324 324 324 323 327 332 329 323 322 322 321 321 324 328 328 323 324 328 326 327 328 327 328 328 327 331 329 323 324 329 332 341 350 348 346 347 346 344 345 350 353 350 351 356 359 358 356 353 352 351 351 350 349 349 349 349 348
315 315 317 323 325 323 324 324 323 323 323 327 334 338 335 328 325 324 324 321 319 319 321 320 319 322 324 324 326 331 330 325 322 324 324 326 331 331 324 323 325 322 321 323 327 331 327 324 328 329 327 327 327 327 326 326 328 328 325 326 330 330 333 341 341 343 346 346 345 344 345 349 351 353 357 358 358 358 355 354 353 351 350 349 349 349 350 349
314 315 319 324 325 325 326 325 323 323 324 330 336 336 331 327 325 324 323 322 320 320 321 320 319 321 323 324 326 329 328 325 322 324 327 326 325 327 325 324 325 323 322 324 327 330 329 324 325 328 326 326 327 326 325 325 325 326 327 327 331 334 336 337 337 343 348 347 347 344 343 350 355 358 360 357 355 355 354 355 354 352 351 350 349 351 351 349
315 317 322 325 324 325 325 324 323 323 326 332 335 331 326 325 324 323 324 322 320 321 321 320 321 322 322 324 326 326 327 326 322 323 329 328 324 325 326 323 323 323 322 324 326 328 330 328 326 329 328 325 325 326 326 327 325 324 324 324 324 328 333 337 336 339 347 349 348 345 345 353 360 359 359 356 353 352 351 353 354 352 352 351 349 351 351 348
315 319 324 325 324 324 324 325 324 325 328 331 329 326 324 324 325 323 322 320 319 320 320 320 321 322 322 322 322 324 325 325 323 322 326 325 323 328 329 323 321 323 324 327 327 324 327 332 330 327 324 322 325 327 326 328 328 326 325 325 324 326 331 336 334 334 343 348 349 347 349 358 362 359 359 356 354 353 351 350 351 352 352 352 351 351 350 349
317 320 323 324 325 324 323 324 324 323 326 328 325 324 323 323 324 322 320 319 319 319 319 320 321 322 323 322 321 323 324 324 322 322 324 324 325 329 330 323 321 323 326 327 326 324 329 334 330 325 325 325 325 326 324 324 326 327 326 326 327 329 334 337 336 335 337 341 347 349 350 358 360 357 357 354 350 353 352 350 350 352 352 351 350 349 349 349
319 320 323 325 325 324 323 326 327 325 324 324 323 323 323 323 323 321 320 320 319 319 319 319 320 320 321 321 322 323 323 324 323 322 324 326 326 325 324 322 322 323 325 326 325 326 330 331 327 329 337 336 329 329 328 325 324 323 323 325 326 326 330 338 343 343 339 338 343 343 345 356 358 353 352 349 347 351 353 352 351 351 351 350 349 349 349 349
317 316 319 323 324 323 323 326 329 329 327 325 323 323 323 323 322 320 320 320 319 319 318 319 320 319 320 322 322 323 324 324 323 323 324 325 324 323 322 322 322 323 325 327 328 326 326 330 333 334 338 337 333 331 329 327 327 324 323 324 324 325 325 330 338 343 340 338 339 339 346 357 355 351 351 349 348 350 352 352 352 351 350 348 348 350 349 348
318 320 320 322 324 324 324 325 325 325 326 324 323 324 323 323 321 319 320 319 319 319 318 319 319 318 320 322 322 323 324 323 323 323 324 324 323 323 322 321 322 324 325 327 329 327 326 333 340 335 329 327 328 328 327 328 329 328 326 325 327 326 321 322 329 334 333 334 337 342 349 353 352 352 353 351 350 352 352 352 353 352 351 349 347 347 347 347
322 327 326 324 325 323 323 324 322 322 324 324 326 326 324 323 320 318 319 319 319 319 318 319 320 320 321 321 322 323 322 322 323 324 325 324 323 322 322 322 322 324 326 323 323 331 336 337 340 339 333 332 334 337 336 331 326 325 325 328 334 337 331 328 330 331 334 336 338 345 352 352 351 353 354 352 351 352 352 351 352 353 353 352 350 349 348 347
324 330 327 326 328 326 325 324 320 320 322 324 329 330 325 323 321 319 321 320 319 319 320 321 321 320 321 322 324 325 325 325 325 324 324 325 325 323 321 322 321 322 325 321 320 334 341 332 330 335 334 334 336 335 331 327 325 327 330 332 339 345 344 337 328 330 340 338 337 348 356 357 356 354 353 353 351 350 351 350 351 352 352 353 352 351 350 349
328 331 327 328 331 331 329 327 324 321 320 323 331 329 323 322 322 321 321 320 319 320 322 324 323 322 323 325 328 328 327 328 328 327 326 326 327 326 324 323 323 320 322 322 323 334 338 329 326 327 327 328 329 326 326 329 331 335 337 338 341 344 345 343 336 335 342 339 339 351 356 356 355 353 352 353 350 349 349 349 350 351 352 352 352 351 351 351
330 332 329 330 333 331 330 328 325 324 323 326 332 329 322 322 322 321 321 321 321 320 321 324 323 322 324 329 333 331 328 327 328 328 328 326 327 328 327 326 324 321 321 324 325 329 333 331 329 327 325 327 327 325 328 334 335 336 337 338 342 342 342 344 344 344 345 343 347 353 353 353 352 351 352 350 348 348 349 349 350 350 351 352 351 351 352 352
330 331 330 331 334 332 330 328 325 326 326 326 329 327 322 322 322 321 321 321 321 322 321 322 322 322 323 328 330 329 326 326 325 325 326 326 328 329 327 325 325 322 323 327 327 326 327 328 331 332 329 327 327 327 330 335 336 335 335 337 342 344 344 345 344 347 350 350 350 352 355 356 351 347 349 349 349 351 350 349 350 349 350 351 351 352 353 352
328 329 330 332 337 335 330 329 326 325 328 328 326 326 324 323 322 322 323 321 320 321 320 320 323 325 326 328 328 325 324 323 322 321 322 322 323 325 324 324 324 323 325 328 328 329 329 328 334 340 333 327 327 326 327 332 334 334 333 335 340 344 344 345 343 344 348 351 352 353 355 356 350 347 348 348 348 350 349 349 349 349 349 349 350 351 352 352
325 328 329 332 337 335 330 331 329 326 329 330 326 325 325 323 321 323 327 324 318 319 320 319 323 327 328 328 327 325 323 322 320 320 320 319 319 321 322 322 322 322 325 327 326 331 333 327 329 334 331 327 328 326 327 332 336 337 336 334 340 345 345 345 345 343 344 349 353 355 355 352 349 349 350 349 347 348 348 348 348 349 349 349 349 350 350 349
Wind_Speed
14 14 14 13 12 11 11 10 10 10 11 12 12 12 12 11 10 8 7 5 5 6 6 7 7 8 8 8 8 8 7 7 8 10 9 5 8 13 13 12 11 10 9 8 9 11 12 12 14 14 12 9 9 12 9 10 16 12 2 2 2 2 3 5 7 7 4 2 6 13 10 4 5 11 12 10 12 19 22 22 24 22 24 28 32 37 34 32
15 14 14 14 13 12 11 11 10 10 11 12 12 12 12 11 10 9 8 6 5 5 6 7 7 8 9 9 9 9 9 8 10 10 7 3 8 15 16 14 13 11 10 10 8 11 14 15 17 14 12 9 8 10 6 7 15 7 1 3 4 4 4 8 11 10 8 7 8 14 11 8 8 11 11 6 5 15 18 19 26 28 29 32 35 36 33 33
16 15 14 14 14 14 12 11 10 9 10 11 12 12 12 11 10 10 9 7 6 5 5 6 7 8 9 10 10 10 10 10 8 3 1 1 5 12 16 15 13 10 9 10 8 10 14 15 14 11 12 11 10 12 7 8 10 2 2 2 4 4 4 9 14 15 14 13 12 14 14 11 9 9 11 8 5 13 17 19 27 30 33 35 35 34 34 34
16 16 15 14 14 14 13 12 11 10 10 11 12 12 12 11 10 9 9 8 7 5 5 5 6 7 9 10 10 10 10 8 2 4 6 4 1 8 14 14 12 12 11 11 10 12 13 12 11 10 11 13 14 13 8 10 8 2 2 2 4 4 2 5 13 16 14 13 12 15 16 11 7 7 12 13 8 9 17 26 32 35 37 37 35 35 35 35
16 16 15 14 14 14 14 13 12 11 11 12 12 12 12 11 10 8 8 8 7 6 5 5 6 7 9 10 10 9 8 4 4 6 5 5 4 4 11 12 12 12 12 12 13 14 13 12 11 11 10 11 12 9 7 9 9 5 2 1 3 3 1 1 10 17 15 14 11 13 12 10 9 6 11 14 8 8 20 32 38 40 39 37 37 36 36 36
15 16 16 14 14 14 14 13 12 12 12 13 13 13 12 11 9 7 6 7 7 6 4 4 5 6 8 10 10 9 5 0 4 5 4 2 5 1 7 12 13 13 14 13 15 16 13 11 9 9 7 7 6 3 5 11 12 4 3 4 5 4 4 3 8 16 14 13 12 12 9 9 10 6 11 12 6 14 28 37 40 40 39 37 37 36 36 34
15 16 16 15 13 13 13 13 12 12 13 14 14 14 12 10 8 5 4 6 6 5 4 4 4 5 7 10 10 8 7 5 2 3 3 1 3 3 2 11 14 14 16 15 18 16 13 11 9 9 5 4 4 2 7 10 10 7 4 3 5 8 7 6 11 12 9 14 15 17 11 7 9 7 11 10 8 24 34 38 39 38 37 37 36 35 33 30
15 16 16 15 13 12 12 12 12 12 13 14 14 14 12 9 6 4 3 4 5 5 4 3 4 5 6 8 8 8 10 5 2 3 2 3 5 5 3 9 14 15 16 17 19 16 12 12 12 9 5 4 4 2 11 10 8 7 5 5 6 8 9 9 14 13 10 13 14 14 9 8 13 14 10 8 19 34 36 38 39 37 36 34 34 32 29 28
15 16 16 15 13 12 12 11 11 11 13 14 14 13 10 7 5 4 2 3 5 6 5 3 5 5 5 7 8 8 6 3 5 5 7 6 5 5 4 8 13 15 16 18 19 16 12 12 13 8 5 7 7 4 14 8 3 5 8 9 8 7 10 11 12 11 7 7 9 10 5 5 17 18 9 14 32 38 36 38 38 37 34 31 32 30 28 29
15 16 16 15 13 11 11 11 10 11 13 13 12 11 9 6 5 4 3 3 5 6 5 4 5 5 6 7 5 3 1 6 4 6 7 6 6 5 5 7 13 15 17 20 20 18 14 12 11 6 6 8 8 5 11 8 8 13 15 13 11 9 10 9 6 6 4 3 5 6 3 6 15 14 5 19 37 38 37 37 36 36 32 31 32 29 29 30
15 17 16 15 13 11 11 10 10 11 12 11 11 9 8 7 5 5 4 4 5 5 5 5 6 7 8 9 6 3 3 4 1 5 6 6 8 7 5 8 12 14 17 21 20 19 14 9 5 6 6 8 7 3 4 14 21 20 20 15 10 10 10 8 5 1 2 4 5 6 4 6 8 8 8 24 37 39 38 35 34 34 30 31 30 28 30 29
16 17 16 15 13 11 10 10 10 10 11 10 9 8 8 7 6 5 4 4 4 5 6 6 7 7 9 12 12 4 4 3 2 4 5 6 9 7 5 7 10 13 17 20 20 18 13 8 7 10 8 7 5 5 8 18 24 18 17 10 4 6 6 4 1 3 4 2 4 5 5 4 4 7 18 31 36 38 37 34 33 31 30 31 29 30 31 27
16 17 16 15 13 11 10 9 9 10 9 9 8 8 8 7 7 6 5 5 5 6 6 7 8 9 10 12 9 2 5 6 3 2 5 7 9 6 5 8 9 12 16 18 18 15 12 10 10 15 12 5 3 6 10 14 16 12 9 5 3 4 2 4 4 3 3 2 6 4 4 1 3 7 22 33 36 36 34 32 31 29 30 31 30 31 31 27
16 16 16 14 12 11 10 9 9 9 8 8 8 8 8 8 8 7 6 6 6 7 7 7 9 9 11 9 4 4 6 8 5 5 6 9 9 5 4 7 10 14 17 18 17 13 10 9 11 17 12 2 8 12 11 7 6 7 5 3 2 3 1 4 3 2 2 1 6 6 4 4 4 6 21 33 35 34 30 29 29 28 30 31 30 30 29 28
16 16 15 14 12 11 9 9 9 8 7 7 7 7 8 9 9 8 8 7 6 7 7 8 9 10 14 11 4 7 9 8 8 7 7 11 11 7 4 6 10 15 18 18 16 11 7 8 14 14 6 9 14 11 5 2 2 2 4 1 1 2 1 4 4 2 3 3 6 5 3 4 4 6 21 32 33 33 29 27 28 28 30 30 28 28 28 27
17 16 15 14 12 10 9 9 9 8 7 7 7 8 9 9 10 11 11 9 8 7 7 7 9 10 11 8 3 6 9 9 6 6 10 12 11 9 4 5 9 13 15 14 11 7 6 11 16 10 5 7 9 6 3 3 1 1 2 3 2 3 3 2 3 3 5 2 3 3 3 3 3 7 19 29 32 33 28 26 27 29 30 27 25 27 27 27
17 16 14 13 11 10 9 9 9 7 6 7 7 8 11 12 12 12 12 11 9 9 9 9 10 12 8 3 3 6 7 6 4 4 11 12 11 9 7 7 8 9 10 9 8 9 11 12 10 6 3 3 5 5 4 1 2 1 3 3 2 3 4 2 2 2 6 3 2 1 3 3 3 7 18 26 30 30 25 24 27 29 28 24 25 29 27 29
17 16 14 13 11 9 9 9 9 6 6 7 7 9 11 13 12 10 10 10 10 9 9 7 7 8 5 4 8 10 8 6 3 3 10 10 8 10 10 8 6 7 8 7 8 10 11 8 5 2 1 2 4 5 4 4 5 5 3 3 2 3 4 4 2 1 4 3 3 1 2 3 1 5 13 22 29 27 23 25 29 29 27 24 27 29 27 28
17 15 14 12 10 9 8 8 8 6 5 6 8 10 9 11 10 5 6 9 9 7 6 6 5 4 7 13 14 8 2 5 5 4 8 9 7 10 11 9 7 9 8 4 5 8 7 2 2 2 3 3 4 6 7 7 9 10 8 6 6 5 3 3 2 4 4 3 1 4 3 4 1 5 5 14 24 23 21 25 29 29 26 26 27 28 26 26
17 15 14 12 9 8 8 8 7 5 4 4 6 9 8 9 7 4 10 14 14 12 13 14 13 13 16 18 13 4 3 7 6 5 6 7 9 10 11 11 11 10 6 4 3 7 8 2 1 5 6 6 5 7 9 7 9 10 6 6 7 6 3 3 3 4 4 4 3 3 3 6 4 3 5 3 16 18 18 22 25 28 28 27 27 27 25 25
17 15 14 11 8 8 7 6 5 3 3 2 4 8 7 6 4 6 14 18 19 19 18 18 17 18 18 14 11 8 3 3 4 6 6 8 10 8 8 10 8 6 6 7 5 3 6 4 4 8 9 8 8 9 7 4 8 9 6 6 6 3 3 4 4 5 6 3 3 4 3 4 5 7 12 6 6 9 12 19 23 28 28 27 28 28 25 25
17 15 13 11 7 7 6 5 4 4 4 5 6 8 6 6 6 10 12 14 21 22 18 17 18 18 15 12 12 11 8 3 3 6 6 8 10 8 8 8 4 3 5 6 4 0 3 5 7 10 9 8 9 9 5 4 9 8 5 5 4 3 4 4 3 5 5 3 3 4 5 6 5 6 10 8 2 3 6 14 21 27 28 26 29 30 27 27
18 15 13 10 6 6 5 4 5 6 7 7 7 8 10 10 8 12 13 11 18 21 16 15 16 16 15 11 8 8 7 4 5 7 8 9 11 11 9 6 3 4 3 4 5 3 3 6 10 12 8 7 10 10 6 5 6 5 5 5 3 7 6 1 4 7 4 1 4 6 4 2 3 5 7 5 1 2 5 8 14 25 28 26 31 32 29 28
18 15 13 9 6 5 4 4 5 6 7 7 7 11 15 13 7 11 14 8 9 13 9 11 13 15 16 11 6 8 9 7 6 7 9 11 12 9 8 8 4 4 4 5 6 5 6 9 12 11 7 8 10 10 7 4 5 6 8 6 5 10 7 3 7 8 5 3 5 8 3 1 3 5 6 4 1 1 2 5 9 17 21 24 32 33 29 29
18 15 12 9 5 5 4 3 4 6 8 8 9 13 16 13 7 8 9 4 4 7 5 6 10 13 14 10 8 9 9 9 10 9 10 13 13 8 6 9 6 3 6 7 6 5 9 13 11 8 7 9 9 9 9 6 5 5 9 9 11 14 8 10 13 9 4 2 5 7 4 2 5 7 8 4 2 2 1 3 7 12 13 18 29 30 29 32
17 13 11 9 5 4 3 3 5 7 9 9 9 11 14 13 12 9 4 2 3 4 2 2 7 7 8 9 10 6 2 6 10 11 12 12 13 9 4 5 5 6 7 5 4 3 7 11 8 7 9 10 8 9 10 7 6 5 9 9 11 13 12 16 17 9 3 3 5 7 4 2 4 8 9 5 4 5 3 3 8 11 10 15 25 26 30 36
16 13 10 8 6 4 4 4 6 7 8 8 7 9 11 11 14 12 3 2 3 3 1 3 5 3 5 10 11 6 2 3 5 9 15 14 12 11 6 3 3 5 5 3 3 4 6 8 7 8 10 8 7 8 9 7 6 4 8 13 14 13 14 17 14 6 3 3 4 4 2 3 3 7 8 6 5 6 5 5 8 12 12 14 22 23 30 37
15 12 9 8 7 5 4 3 3 4 5 6 7 9 8 7 11 8 2 2 3 2 1 3 3 2 5 9 13 9 2 2 2 5 16 17 12 10 7 5 4 5 5 3 5 6 5 7 8 9 8 7 6 8 8 7 5 5 12 19 17 14 14 14 10 4 3 5 5 5 3 2 2 3 4 6 7 8 9 8 8 13 16 15 18 21 29 36
14 11 8 7 6 5 3 2 1 1 4 7 8 7 6 8 8 3 3 1 2 3 3 4 3 4 7 8 10 9 5 2 2 5 14 17 13 9 6 6 5 5 7 6 6 7 7 9 10 8 6 7 8 10 8 7 4 5 12 14 9 8 8 8 6 4 4 3 4 9 7 3 2 3 5 6 8 12 11 9 10 15 19 18 17 20 29 36
13 10 7 6 5 4 2 2 1 1 5 8 8 7 8 7 3 3 2 0 1 3 3 4 2 5 8 4 3 4 3 2 4 5 8 11 11 10 6 7 6 3 6 7 6 9 12 13 10 6 7 9 9 9 7 8 10 10 11 11 10 7 6 5 3 3 3 1 3 10 11 4 1 3 7 7 8 11 11 8 10 15 18 19 18 20 30 36
11 9 6 5 5 4 4 2 1 3 7 10 11 11 9 5 3 4 0 1 1 2 2 2 3 4 7 3 1 3 2 2 5 4 4 4 4 5 2 3 4 2 4 5 5 6 8 10 7 6 11 10 7 6 1 6 13 13 8 8 8 4 6 6 4 4 1 2 3 7 10 5 2 3 7 8 5 7 12 10 10 15 18 20 20 21 30 36
9 8 4 4 4 5 4 1 3 5 8 10 13 12 6 3 3 1 2 3 2 3 3 3 4 4 6 5 3 4 2 2 5 4 3 3 1 2 3 3 3 1 3 3 3 4 4 6 5 5 9 7 7 6 1 6 9 9 5 7 7 3 3 2 1 2 1 3 3 3 8 4 4 4 6 10 8 8 14 16 16 20 22 24 22 22 29 35
8 6 3 3 3 5 3 1 3 5 6 8 11 8 3 4 1 3 3 3 2 3 3 5 5 5 6 5 3 4 1 0 2 3 4 3 2 3 4 6 6 3 2 2 3 3 3 5 5 3 6 4 6 4 2 3 5 7 6 6 5 3 2 2 3 0 2 4 4 3 7 3 4 3 4 9 12 15 20 24 26 27 29 28 25 23 27 34
5 3 1 3 4 4 3 1 3 5 7 9 9 4 4 2 3 4 3 4 4 3 1 3 6 5 4 2 3 3 2 2 1 2 4 2 2 2 4 6 6 5 1 2 3 2 1 4 5 3 4 3 4 5 7 5 4 5 6 6 6 6 5 4 4 3 2 2 2 2 4 3 2 3 3 4 11 18 22 25 28 29 31 31 26 22 25 32
4 3 4 4 4 4 3 2 4 5 7 9 6 4 3 1 3 3 3 4 3 4 5 2 5 4 2 2 2 2 3 1 3 2 3 4 2 4 3 4 5 5 3 0 3 2 3 4 6 5 6 7 5 4 6 6 3 2 4 6 5 6 5 3 3 4 4 3 1 2 3 3 3 2 4 4 4 14 19 21 24 26 30 32 27 22 22 28
4 5 5 4 4 4 3 2 3 4 6 5 5 3 0 3 3 2 3 4 4 3 5 6 3 3 1 2 3 5 5 1 5 3 2 3 3 4 4 3 4 6 6 4 2 1 1 4 6 3 4 8 7 5 7 7 3 1 2 4 5 3 7 6 1 1 4 3 1 3 2 3 1 2 5 5 4 9 14 17 21 25 29 31 29 23 20 24
5 6 7 5 4 6 6 3 2 3 4 3 4 0 3 4 4 4 5 8 9 4 4 3 1 2 1 1 2 2 3 3 3 3 1 1 2 2 3 4 5 7 9 7 2 1 3 3 6 2 4 9 7 7 6 6 7 3 1 3 2 2 4 5 3 2 3 2 2 3 2 2 0 1 4 3 5 5 8 13 18 23 27 30 30 26 20 20
6 8 9 5 6 7 6 3 1 2 1 3 1 3 3 3 6 7 9 11 10 4 4 1 1 2 2 1 1 3 1 2 1 2 1 1 2 3 1 2 4 5 7 9 3 1 4 1 7 3 3 6 2 7 3 2 3 5 3 2 3 2 1 2 2 2 2 1 2 2 2 1 3 3 3 4 6 7 7 10 13 17 23 27 29 28 21 18
6 8 6 5 8 7 6 4 3 2 1 3 1 3 2 4 9 13 16 14 7 2 2 1 1 1 1 3 3 2 1 1 1 1 2 2 2 3 2 2 3 9 6 8 7 3 2 3 4 6 3 1 2 4 2 3 1 3 2 3 2 3 3 2 2 3 3 2 2 1 2 2 4 4 6 9 9 9 10 9 10 16 23 27 29 28 19 18
6 6 2 7 10 8 8 6 4 2 1 0 3 3 4 6 10 19 24 17 5 1 1 2 1 2 1 3 4 2 2 4 3 2 2 2 1 4 4 1 2 10 10 1 4 2 1 3 2 6 7 2 1 1 5 5 3 2 2 2 1 0 2 2 1 2 4 4 2 1 1 4 4 3 5 9 9 8 9 8 9 15 23 25 28 27 17 18
4 3 2 7 11 8 10 8 4 2 1 2 2 3 5 6 9 16 21 16 4 2 1 1 1 1 1 2 1 2 1 2 3 2 1 0 1 1 4 5 5 6 6 5 4 1 1 2 1 3 4 2 4 6 5 6 6 6 4 3 3 2 3 3 1 1 2 4 4 4 2 5 4 3 4 7 7 8 12 13 11 15 21 23 23 23 18 19
2 2 1 8 13 9 8 6 3 2 2 4 6 7 9 8 8 12 13 14 9 2 2 2 0 0 1 2 0 1 1 1 2 1 1 2 3 4 6 10 9 5 5 2 3 2 2 3 2 2 2 2 8 9 4 5 5 5 4 4 4 4 4 5 3 3 2 3 2 3 2 5 4 2 4 5 6 9 15 18 16 16 20 25 25 24 22 18
3 4 3 11 15 11 5 1 3 1 2 9 12 12 12 8 6 7 6 9 7 4 4 3 1 2 1 1 2 2 2 1 2 1 1 2 2 3 7 8 8 7 5 1 4 5 3 2 3 3 4 4 7 7 4 2 1 2 2 2 4 4 4 5 5 3 4 4 2 3 0 5 3 1 2 4 7 9 13 18 20 18 19 27 31 29 27 23
7 8 6 7 13 14 5 1 2 3 4 7 8 8 11 10 5 2 3 6 5 3 3 2 2 3 2 0 2 0 2 2 1 1 1 1 0 4 9 7 7 5 2 1 1 4 3 2 3 3 4 6 7 7 8 7 3 1 3 4 2 4 4 3 2 4 3 4 4 5 3 5 3 1 1 4 7 7 10 17 21 21 20 25 31 29 27 27
8 7 8 4 11 15 10 5 5 3 4 5 6 7 8 8 5 4 5 4 5 4 2 2 4 6 4 2 3 2 1 2 1 3 3 1 2 6 9 8 6 3 2 2 3 3 2 2 3 4 3 1 2 2 3 3 3 2 4 6 6 5 3 1 2 4 2 4 4 5 4 5 2 2 2 3 6 6 8 14 18 21 22 24 28 29 28 28
5 2 5 7 5 12 15 13 8 3 3 3 5 6 4 4 4 5 6 3 5 6 3 2 5 7 5 4 4 3 4 3 3 3 4 3 3 3 8 9 4 2 4 5 6 5 3 2 2 5 5 4 4 5 5 2 3 5 6 8 7 5 3 3 5 3 4 5 3 3 5 4 3 5 5 4 6 6 6 11 16 19 21 23 24 27 28 29
2 0 2 6 8 6 7 10 8 4 4 3 2 4 4 3 4 2 3 1 3 5 3 4 6 5 4 5 4 3 5 5 5 5 3 3 2 4 12 11 5 8 9 5 5 4 4 3 2 3 3 4 5 4 5 6 7 6 6 7 7 7 7 6 4 5 6 7 3 5 7 9 8 8 7 7 6 6 7 11 16 19 21 22 23 24 26 28
1 4 5 6 4 3 2 8 10 6 8 7 3 3 3 5 5 2 1 2 4 4 3 4 5 5 5 5 3 2 5 5 5 5 4 4 3 5 10 8 6 15 14 6 5 4 5 1 3 0 2 3 4 8 9 10 9 9 9 8 8 10 9 6 1 4 7 7 5 7 8 8 8 8 7 7 7 7 10 13 16 19 20 20 21 22 23 24
3 4 7 7 5 6 7 13 13 8 6 5 2 2 2 4 6 3 1 2 3 3 2 2 4 4 7 6 4 2 2 2 3 4 3 4 4 3 5 4 7 15 13 5 5 4 5 1 3 2 3 5 10 12 9 11 11 11 13 12 11 9 7 7 5 2 3 4 3 7 8 3 2 5 5 5 7 8 11 13 14 17 18 18 19 19 19 21
5 3 6 9 9 10 12 13 9 7 6 4 3 3 2 3 5 3 2 3 2 2 2 3 4 3 5 7 6 4 1 3 3 3 2 3 4 2 2 1 3 9 9 3 3 3 4 1 2 4 4 4 9 9 5 10 12 11 13 14 13 11 9 7 6 5 5 7 9 11 9 4 2 4 8 8 8 9 10 12 14 15 16 17 17 18 18 20
4 2 5 7 5 7 10 11 7 5 5 4 2 3 2 4 4 1 5 5 5 3 1 2 4 4 4 7 7 5 6 4 4 6 4 3 3 2 2 2 1 4 5 3 3 2 3 1 2 5 4 2 5 6 2 4 10 12 12 12 12 10 7 6 6 6 4 6 10 10 7 0 0 8 12 9 9 9 8 10 12 13 13 15 16 16 18 20
5 3 2 2 3 4 6 7 7 4 3 4 3 3 4 3 1 5 4 6 7 9 7 6 8 4 4 5 4 5 10 11 10 10 9 7 7 8 7 7 7 5 2 1 3 2 2 2 1 3 3 2 4 5 2 1 6 7 6 7 8 7 7 7 9 11 8 4 5 5 4 4 5 9 10 7 7 8 7 8 11 12 12 13 14 14 15 17
Wind_Direction
2 4 5 6 7 6 5 5 5 7 7 2 359 360 359 357 353 350 339 331 328 326 327 324 322 320 316 311 308 305 302 292 280 275 273 252 208 212 211 204 202 202 195 181 175 171 174 174 175 178 183 204 238 248 252 227 194 176 154 143 201 203 181 199 193 177 172 227 137 150 182 185 157 175 170 148 141 149 146 141 138 131 134 140 143 145 147 148
358 358 359 1 3 3 4 3 4 7 7 3 359 358 357 355 351 347 340 329 322 321 322 320 322 319 315 312 310 309 309 302 289 281 276 248 203 209 210 200 198 200 193 189 183 172 169 164 164 173 195 217 233 230 253 200 173 162 174 177 228 210 177 194 193 192 179 182 161 141 161 185 170 179 179 163 150 150 139 133 130 125 132 139 145 148 146 145
359 355 353 355 358 359 0 360 2 4 4 2 358 357 356 353 349 344 338 332 324 315 314 318 319 316 315 313 313 315 318 317 302 292 28 334 207 209 210 204 197 189 182 181 183 178 169 163 171 196 220 230 241 231 239 204 178 125 132 184 247 224 167 181 193 199 189 182 162 132 148 178 191 190 178 164 134 146 144 140 135 132 138 142 147 149 146 148
2 356 350 350 352 355 356 356 357 358 1 360 356 356 352 350 348 341 334 332 327 318 314 313 313 313 313 313 316 320 329 337 332 120 77 48 121 206 208 208 198 184 173 174 180 182 179 180 195 231 240 241 246 234 233 222 202 106 116 185 262 255 147 180 209 198 185 186 160 125 135 162 214 209 169 152 122 143 150 147 143 141 145 146 148 149 150 153
2 359 352 346 347 350 353 353 353 354 356 355 353 351 348 346 345 340 329 328 330 325 315 310 312 312 312 315 319 322 338 7 126 125 90 57 52 194 202 202 197 184 171 173 179 180 190 201 216 246 252 241 239 236 230 193 154 107 73 86 339 314 94 294 220 186 170 176 147 107 123 158 189 180 159 150 121 151 153 148 146 145 148 150 150 150 152 154
359 359 354 347 342 345 349 350 350 351 351 349 348 346 344 340 340 340 323 320 327 326 321 312 309 312 314 316 318 323 333 153 149 132 140 80 39 73 197 195 193 182 171 174 180 183 198 210 226 246 247 242 236 220 171 149 141 126 61 65 21 39 85 44 168 168 157 154 133 117 137 165 169 161 170 169 136 149 152 148 146 145 148 150 150 149 151 155
357 356 354 349 342 342 345 347 348 349 348 346 344 342 342 338 338 342 321 315 322 326 325 312 305 311 315 315 318 321 299 260 200 129 161 260 356 3 214 197 193 180 172 175 180 184 199 210 229 238 245 266 251 152 126 125 125 119 99 102 66 79 82 75 129 140 129 133 132 137 157 186 169 159 180 197 165 149 150 148 147 146 147 148 149 151 154 157
356 354 352 348 343 340 342 345 346 347 346 344 342 342 343 343 343 345 328 314 317 325 327 315 301 301 311 315 317 314 297 273 119 72 33 338 309 313 288 208 197 180 173 176 178 181 198 219 229 233 243 249 260 163 130 108 86 103 117 139 108 84 89 99 118 113 108 132 142 154 185 206 171 160 174 185 150 146 147 146 147 147 146 148 152 155 157 161
355 352 350 347 343 339 338 342 344 345 345 344 344 346 351 354 353 356 341 316 317 322 326 311 293 298 308 307 311 316 304 134 98 29 4 344 312 297 275 217 202 184 173 176 179 183 200 218 215 220 239 246 276 205 152 129 72 131 126 124 109 90 101 101 111 121 133 154 166 176 184 149 156 160 159 146 142 143 146 145 147 149 149 152 154 158 161 165
353 351 348 345 342 338 336 339 341 345 346 346 350 356 3 5 3 5 349 327 319 319 326 308 295 300 301 301 305 312 144 122 74 357 345 325 323 302 246 209 201 188 175 177 183 189 195 197 205 244 268 276 299 230 180 150 129 127 112 99 93 97 104 101 118 152 160 129 135 154 109 87 141 154 140 140 143 144 145 145 148 151 153 155 157 161 165 168
352 348 345 345 342 337 336 337 340 344 346 348 355 4 11 8 5 1 351 337 324 325 328 310 304 299 299 300 276 222 142 130 17 340 324 314 327 312 242 205 198 189 181 180 186 192 195 195 224 285 294 315 342 46 106 123 127 122 110 91 77 91 96 106 144 184 39 60 70 99 91 59 112 140 147 146 146 145 145 147 151 154 156 158 162 166 169 171
350 346 344 344 340 337 336 336 339 343 346 350 356 5 10 8 3 357 351 343 330 329 327 319 317 307 307 293 267 231 134 187 279 318 302 310 324 311 232 203 196 190 184 182 187 192 204 229 274 281 287 338 14 71 82 122 125 117 109 97 69 81 73 61 39 353 17 29 28 72 96 33 49 140 149 148 147 146 146 149 154 157 159 162 168 171 171 172
348 345 343 343 340 336 334 334 337 339 345 348 351 359 4 5 2 355 349 343 335 332 334 332 325 318 312 290 263 200 160 205 234 243 272 301 315 303 221 194 187 188 187 183 185 192 215 245 276 279 282 346 40 118 121 126 118 105 93 96 106 84 18 345 3 0 23 39 9 39 123 267 286 149 147 150 149 147 147 152 157 159 162 167 172 174 174 173
347 345 343 342 338 334 332 332 332 334 341 341 344 352 357 359 356 349 339 334 336 337 345 342 332 326 310 285 222 163 191 206 223 219 254 280 287 288 225 191 185 184 184 183 189 203 230 254 284 287 281 137 120 120 123 115 98 109 87 61 100 107 221 313 328 357 27 358 1 31 136 200 246 165 152 154 151 148 149 154 160 162 166 172 175 177 177 175
348 346 342 341 336 332 330 327 326 329 332 332 338 345 348 348 344 339 328 316 321 331 338 332 324 324 310 292 216 189 213 227 244 232 238 258 263 265 234 195 188 180 180 188 199 219 245 282 293 285 253 143 130 121 117 78 43 118 108 79 2 103 139 306 290 73 62 289 351 44 143 189 228 181 157 155 153 151 153 159 163 164 170 176 178 180 179 176
348 346 342 340 335 331 325 321 322 322 322 326 333 338 339 336 326 322 315 303 304 308 315 312 307 313 307 296 240 212 227 237 258 239 218 232 245 244 223 195 188 175 181 194 205 238 274 291 288 264 199 147 135 128 91 76 10 308 107 148 163 120 139 297 279 131 122 230 329 58 155 175 217 189 161 158 156 155 157 165 165 166 174 179 178 176 173 168
348 345 341 339 335 330 322 319 318 312 317 321 324 332 334 332 322 310 298 292 294 295 299 290 288 299 293 284 314 300 273 252 273 230 201 213 230 222 204 193 189 183 192 207 227 259 276 274 266 245 196 153 136 131 114 129 225 292 69 123 145 132 148 159 269 163 129 145 303 18 138 186 224 177 164 162 160 160 163 166 165 169 175 176 173 169 164 159
347 344 341 338 333 327 319 318 317 308 313 315 325 341 341 341 334 305 283 287 292 301 304 273 272 305 299 303 318 319 308 261 240 205 193 202 219 218 209 191 187 205 215 232 243 245 259 257 214 205 279 168 136 135 157 194 188 172 147 134 140 148 154 162 190 147 115 143 253 334 127 211 239 151 164 167 165 165 167 165 164 170 172 167 166 166 164 163
347 343 340 338 334 326 317 320 320 308 309 315 332 345 353 357 356 329 304 300 288 300 314 267 248 276 279 294 307 321 310 195 182 195 202 201 210 223 218 198 199 215 212 220 244 224 220 249 154 172 262 215 170 165 189 206 186 177 169 150 153 157 141 142 106 56 82 130 40 3 350 283 215 139 154 168 171 172 169 164 164 169 169 163 163 167 171 171
347 343 340 338 334 323 316 321 321 313 324 336 344 347 353 359 9 3 329 310 293 299 301 286 271 268 273 286 302 332 144 168 177 199 200 199 206 219 218 204 202 209 203 178 221 220 192 166 179 203 229 224 207 200 206 217 188 166 151 148 156 153 125 127 115 98 119 113 72 43 334 306 327 10 350 166 175 178 167 161 164 167 167 166 165 169 176 177
347 343 339 338 333 321 316 320 319 309 327 343 346 344 342 348 357 336 326 314 311 313 301 294 287 278 278 283 294 297 260 193 191 199 204 214 208 209 206 194 187 200 215 199 205 218 177 181 223 217 226 224 230 233 222 202 170 154 142 148 149 143 122 125 138 147 149 135 133 141 162 262 311 323 322 337 156 170 160 161 166 167 169 171 168 171 179 180
347 343 340 339 333 319 311 315 306 283 298 297 312 329 340 356 353 334 327 310 311 314 301 295 291 277 270 278 286 280 266 252 223 208 211 213 201 201 193 171 165 208 218 205 200 232 183 217 233 222 227 230 241 247 227 175 165 155 139 143 138 129 103 86 118 140 151 155 136 130 154 205 245 271 298 324 70 109 130 159 168 169 170 170 169 173 179 180
345 343 341 339 332 316 306 306 295 289 299 296 308 336 347 346 332 319 317 295 298 307 295 275 273 264 256 267 270 249 244 233 226 225 217 205 195 200 191 165 181 216 205 190 178 167 202 227 227 222 223 230 247 251 231 190 171 158 144 145 150 159 151 152 165 145 141 123 127 135 148 214 268 269 275 292 274 58 103 149 168 173 174 171 172 174 178 181
344 343 340 338 332 311 301 298 292 297 302 302 327 357 0 351 330 311 309 288 284 302 286 242 247 254 251 256 243 230 240 228 228 232 214 206 198 192 196 189 185 214 219 200 179 181 226 234 218 212 210 220 243 252 235 191 171 184 178 168 162 174 179 150 146 139 107 61 123 129 101 312 256 248 250 257 268 322 129 155 166 175 176 172 174 176 179 180
343 343 339 338 327 303 310 307 295 302 309 321 345 9 15 8 2 330 307 294 280 291 296 239 234 243 241 235 229 233 236 227 236 238 210 204 202 188 201 201 183 217 229 212 191 199 242 245 221 203 209 215 235 249 238 202 167 194 203 188 165 168 158 121 134 136 115 157 180 152 130 239 225 221 232 239 222 246 223 191 189 180 174 172 177 181 178 176
342 342 341 336 321 304 309 305 306 304 313 332 345 1 9 3 359 345 313 11 320 273 300 226 206 221 219 202 207 213 232 235 244 242 216 206 212 205 207 205 185 212 219 206 205 207 241 240 215 206 215 212 223 241 241 206 160 197 211 181 150 149 139 138 149 149 143 187 196 178 160 178 209 217 223 219 206 229 232 228 220 202 185 175 182 186 176 172
341 342 344 333 321 312 294 294 303 301 318 338 332 339 353 357 352 340 326 46 316 268 274 209 189 210 198 183 188 169 87 272 267 249 219 204 210 208 220 259 205 221 216 175 221 238 228 223 207 211 220 218 216 231 239 200 167 214 185 153 148 149 147 155 157 148 141 111 133 181 153 118 198 221 212 193 200 233 231 228 232 220 209 185 187 192 178 174
339 341 343 330 321 318 309 302 289 288 322 329 319 325 341 350 342 340 73 86 280 263 222 201 187 196 179 180 195 195 228 315 353 242 214 201 197 189 205 240 222 249 256 193 233 253 223 205 202 204 215 223 218 229 227 184 174 212 165 154 162 159 153 156 144 125 135 106 133 197 178 127 238 231 181 175 201 226 223 219 220 220 218 199 193 197 183 177
336 336 339 327 314 314 317 290 252 300 328 323 318 315 326 337 338 10 91 89 260 247 192 167 170 180 171 178 203 219 258 302 107 188 200 201 207 196 206 241 237 275 270 221 227 256 245 224 210 193 196 218 229 237 218 169 161 179 151 138 129 119 128 139 126 116 120 104 174 197 189 173 257 214 163 171 210 219 215 212 210 214 216 207 201 198 186 179
332 330 333 316 303 302 269 215 217 336 330 330 324 313 323 335 2 69 60 338 249 232 168 153 201 165 151 164 234 232 238 198 170 187 202 208 218 219 234 263 251 267 278 251 241 246 249 251 240 204 204 213 218 229 214 167 148 131 123 106 81 62 51 44 24 72 90 351 214 191 191 188 260 209 183 187 209 206 199 200 203 209 213 211 206 196 185 179
326 324 323 302 286 259 236 225 282 310 322 322 316 318 330 346 66 87 76 290 293 242 144 158 232 153 140 149 240 227 220 203 187 190 222 230 230 222 233 290 261 279 312 289 278 264 253 259 259 228 225 215 200 218 204 124 132 117 114 114 91 44 28 33 345 357 69 245 251 187 182 180 249 229 203 206 202 176 188 198 193 196 205 210 209 196 185 180
320 318 310 289 260 220 224 286 292 297 311 308 310 321 343 32 41 127 245 322 315 228 185 182 201 181 163 159 193 219 195 192 199 184 196 195 189 200 174 192 199 5 321 279 297 306 273 246 245 254 245 211 183 218 41 93 120 109 114 116 93 50 30 61 273 323 259 255 308 173 163 178 253 239 205 207 206 181 190 199 193 188 194 205 208 197 184 180
313 314 299 268 223 200 212 268 276 293 310 311 316 329 49 73 358 242 261 309 263 223 191 167 169 181 165 152 211 221 146 322 224 189 196 170 139 208 218 218 190 155 253 281 339 319 311 285 262 272 266 202 149 170 160 134 133 128 147 139 111 123 127 161 192 284 259 271 340 124 157 197 276 268 206 202 208 199 193 196 196 190 189 197 206 198 184 180
304 305 237 219 194 187 199 236 281 300 318 326 334 11 73 72 252 250 262 249 248 280 289 148 151 165 152 149 222 172 114 294 277 163 191 148 76 232 251 254 217 172 169 337 328 224 176 303 264 229 239 210 141 148 160 148 122 148 169 149 141 162 158 168 177 170 204 229 21 95 171 202 210 250 269 251 220 200 192 195 193 190 189 192 201 201 187 182
285 245 233 232 205 184 182 231 282 303 321 333 0 63 81 255 266 291 276 262 290 317 327 22 126 126 36 345 307 57 71 241 237 234 208 162 157 222 232 260 226 172 131 73 281 224 171 236 255 241 205 188 174 163 141 106 64 235 158 133 173 190 149 126 163 164 151 146 130 169 221 228 183 228 312 324 212 178 178 187 186 186 185 186 197 206 195 187
270 246 246 249 221 190 183 226 267 288 312 346 36 59 205 222 238 280 281 284 294 308 350 5 69 93 354 340 5 359 10 25 198 219 261 188 192 218 216 250 225 177 161 170 237 275 162 258 279 295 230 205 188 159 130 125 148 298 94 153 226 194 124 116 136 93 102 110 198 202 240 301 336 335 346 19 89 143 161 174 179 183 182 183 193 202 200 193
272 259 258 245 199 184 194 219 259 273 290 42 72 213 240 233 226 235 278 298 301 323 51 33 30 102 184 1 21 311 340 0 194 196 341 327 260 240 221 261 248 204 192 183 216 219 146 287 289 250 235 238 197 137 128 152 153 125 87 208 250 15 85 107 103 33 57 94 237 221 236 286 5 329 331 39 89 135 161 167 175 181 182 183 189 194 198 193
290 278 269 225 172 175 192 210 244 248 278 57 47 250 231 240 237 243 277 294 306 343 80 86 301 147 139 92 250 253 325 7 268 193 88 36 273 268 244 272 279 266 216 179 174 280 127 9 297 263 215 245 187 105 100 292 135 141 199 205 113 75 35 78 112 138 108 139 263 291 313 251 198 209 228 179 163 171 171 169 174 179 183 184 185 189 191 181
313 298 284 189 173 175 176 197 224 225 27 49 281 263 245 261 273 288 301 301 298 13 73 299 323 113 123 133 173 261 284 230 278 131 161 170 237 292 316 242 300 327 301 171 169 272 106 116 286 311 342 294 30 76 169 277 358 148 264 324 83 141 165 165 154 145 137 163 229 307 344 264 227 207 196 195 191 181 173 175 175 180 185 186 184 184 185 177
323 313 293 176 176 166 159 183 209 188 88 192 225 260 284 284 294 304 312 312 281 151 56 278 354 34 24 132 165 217 213 214 215 179 196 191 227 299 310 336 1 329 324 81 142 271 26 102 247 312 345 39 76 206 180 183 153 159 261 306 310 225 121 143 177 137 124 144 175 153 288 266 242 201 202 202 195 181 175 176 176 180 183 185 184 180 168 164
337 321 285 183 173 152 150 173 204 194 194 263 239 264 280 286 293 298 316 335 333 171 93 309 93 89 67 88 185 232 189 224 209 158 130 185 130 294 293 321 337 324 340 25 38 18 59 103 157 301 344 24 264 259 200 177 162 153 182 200 187 166 118 115 229 283 105 130 162 153 191 266 250 189 214 208 181 172 176 175 176 179 181 181 181 177 166 158
1 296 271 164 168 160 143 163 230 207 181 264 257 259 274 284 290 291 324 1 9 15 27 6 11 34 45 66 334 250 92 341 291 114 150 197 142 160 259 305 339 18 58 44 305 336 94 115 84 307 283 261 274 278 252 212 188 154 179 195 165 148 126 128 191 235 112 113 130 116 156 269 265 192 214 207 169 167 174 175 175 176 179 180 180 186 191 181
344 280 188 153 172 188 161 132 300 289 228 260 258 266 282 286 282 287 332 10 3 8 21 357 13 38 33 75 33 19 83 32 321 121 172 237 147 182 273 320 16 44 58 55 298 342 28 86 56 329 302 311 304 315 352 339 169 138 243 218 155 166 164 154 176 172 129 147 134 81 218 270 274 229 216 185 165 160 166 172 173 171 173 179 183 190 197 194
327 287 244 178 190 209 210 173 259 272 269 271 272 287 302 299 281 277 16 13 354 6 18 350 17 7 305 336 50 51 138 87 341 9 59 223 340 344 323 347 47 51 32 158 279 344 11 47 69 47 358 349 343 352 5 360 12 45 292 288 244 223 201 163 120 89 113 193 157 122 209 263 273 232 205 158 154 152 162 170 172 172 172 178 186 192 196 195
341 301 279 260 209 217 232 221 205 239 278 288 291 293 305 309 320 55 66 15 352 4 1 318 351 352 330 7 29 347 54 88 8 355 16 341 347 344 329 347 47 55 18 91 76 47 68 85 88 94 86 43 3 337 313 315 321 315 321 330 329 311 282 229 123 109 150 204 153 142 207 255 280 222 210 160 154 154 160 166 170 174 177 181 188 193 197 199
12 327 291 321 272 233 240 244 234 228 253 272 282 280 289 294 318 39 58 17 352 356 333 308 351 3 359 4 27 16 4 31 64 40 22 9 353 308 324 346 21 16 2 56 63 62 87 66 86 129 147 181 195 224 243 280 328 328 347 352 349 356 21 87 120 165 185 167 187 219 177 165 215 214 198 190 178 166 153 157 166 173 176 180 185 188 193 199
28 355 318 350 326 276 262 271 266 244 247 245 231 265 295 292 286 4 51 38 30 23 2 350 2 16 10 4 33 26 356 15 41 35 9 355 337 328 346 355 12 7 7 36 44 55 92 32 338 147 157 206 203 244 307 1 8 0 8 358 354 16 39 76 131 205 166 132 202 235 158 156 197 203 190 193 189 176 161 162 170 173 174 178 181 180 183 189
337 329 347 10 322 279 350 303 287 280 270 259 228 244 294 310 303 310 78 53 46 41 28 351 352 33 53 45 68 27 3 25 24 5 357 351 342 351 355 352 6 11 17 39 32 58 113 57 303 291 8 335 352 357 11 38 33 21 23 10 4 18 29 41 358 220 165 145 204 199 156 164 194 188 181 186 185 185 178 173 172 170 170 175 175 173 175 180
9 329 334 356 324 280 287 289 295 314 293 261 250 256 275 319 314 307 119 80 31 7 43 19 341 37 63 61 85 62 13 59 19 338 328 348 353 13 2 334 347 4 16 38 16 44 103 27 316 10 15 7 17 14 33 65 52 29 22 13 4 4 14 31 25 12 111 104 123 126 110 87 208 175 153 153 170 175 167 162 162 162 164 169 168 164 168 176
12 352 328 337 319 295 300 306 323 345 328 324 320 277 269 312 299 308 48 85 74 337 19 34 346 8 70 66 63 35 347 126 80 336 304 339 346 354 359 281 317 356 9 19 343 26 71 358 310 46 40 18 30 27 49 85 74 49 24 8 1 358 359 15 25 22 55 79 87 93 86 34 356 100 98 112 140 144 139 142 146 155 164 164 159 158 159 166
339 314 323 331 306 299 321 330 349 357 317 308 290 262 308 312 286 1 28 31 57 35 347 77 42 9 31 54 52 2 336 11 29 353 339 332 330 337 319 251 272 359 359 3 352 21 71 31 349 56 54 356 28 26 353 98 79 54 25 1 356 0 353 353 18 19 37 104 105 96 96 225 212 100 98 110 127 121 118 127 129 137 155 162 161 162 163 163
323 251 252 339 291 297 332 335 344 358 289 264 251 223 235 275 283 108 65 0 24 44 47 79 85 58 7 23 21 330 335 345 349 350 343 342 10 28 12 350 2 14 331 302 0 357 106 94 41 72 77 322 7 28 345 36 58 36 0 338 339 359 4 4 19 16 10 61 112 117 141 181 164 126 119 126 120 108 110 121 126 127 134 149 160 166 176 178